Flag for Canada Weather past 2 weeks in Whistler, British Columbia, Canada

Now
74 °F

Mild.


Feels Like: 77 °F
Forecast: 53 / 90 °F
Wind: 7 mph from South

Location: Squamish Airport

Current Time: Jul 7, 2015 at 3:58:47 PM

Latest Report: Jul 7, 2015 at 3:00 PM


Visibility: N/A

Pressure: 29.93 "Hg (27.69 "Hg at 674m altitude)

Humidity: 55%

Dew point: 57 °F

Location of WhistlerLocation

Historic Weather in Whistler — Graph

°F

Whistler temperature yesterday

Maximum temperature yesterday: 80 °F (at 4:00 PM)
Minimum temperature yesterday: 61 °F (at 7:00 AM)
Average temperature yesterday: 69 °F

Past Weeks' High & Low Weather Summary

 TemperatureHumidityPressure
High96 °F (Jul 5, 3:00 PM)91% (Jun 28, 10:00 PM)30.13 "Hg (Jun 28, 10:00 PM)
Low50 °F (Jun 23, 5:00 AM)10% (Jul 5, 2:00 PM)29.71 "Hg (Jul 4, 6:00 PM)
Average73 °F54%29.96 "Hg
* Reported Jun 22 2:00 PM — Jul 7 2:00 PM, Whistler, Weather by CustomWeather, © 2015

Note: Actual official high and low records may vary slightly from our data, if they occured in-between our weather recording intervals... More about our weather records

Advertising

Whistler weather history for previous 24 hours

 ConditionsComfort  
Time TempWeatherWind HumidityBarometerVisibility
2:00 PM
Tue, Jul 7
72 °FMild.7 mph58%29.95 "HgN/A
1:00 PM70 °FMild.7 mph62%29.96 "HgN/A
12:00 PM69 °FMild.7 mph66%29.98 "HgN/A
11:00 AM67 °FMild.6 mph70%30.01 "HgN/A
10:00 AM64 °FMild.2 mph72%30.01 "HgN/A
9:00 AM63 °FMild.1 mph75%30.02 "HgN/A
8:00 AM60 °FCool.No wind82%30.02 "HgN/A
7:00 AM58 °FCool.No wind81%30.02 "HgN/A
6:00 AM57 °FCool.1 mph83%30.01 "HgN/A
5:00 AM58 °FCool.No wind84%29.99 "HgN/A
4:00 AM59 °FCool.1 mph81%29.98 "HgN/A
3:00 AM59 °FCool.No wind79%29.97 "HgN/A
2:00 AM60 °FCool.1 mph77%29.96 "HgN/A
1:00 AM62 °FCool.1 mph74%29.96 "HgN/A
12:00 AM63 °FMild.2 mph72%29.96 "HgN/A
11:00 PM
Mon, Jul 6
64 °FMild.1 mph71%29.95 "HgN/A
10:00 PM66 °FMild.1 mph73%29.94 "HgN/A
9:00 PM68 °FMild.1 mph69%29.93 "HgN/A
8:00 PM72 °FMild.No wind59%29.92 "HgN/A
7:00 PM76 °FMild.2 mph45%29.93 "HgN/A
6:00 PM78 °FWarm.6 mph41%29.93 "HgN/A
5:00 PM78 °FPleasantly warm.7 mph38%29.93 "HgN/A
4:00 PM80 °FPleasantly warm.5 mph34%29.94 "HgN/A
3:00 PM79 °FPleasantly warm.3 mph31%29.94 "HgN/A
Weather by CustomWeather, © 2015

See weather overviewHow to use our weather pages